Granbury, TX

11:15 AM CDT on March 24, 2017 (GMT -0500)
Granbury

Weather History for KGDJ - August, 2013

Change the Weather History Date:

Sunday, August 11, 2013

  Actual Average (KMWL) Record (KMWL)
Temperature  
Mean Temperature 88 °F -  
Max Temperature 102 °F 94 °F 105 °F (1999)
Min Temperature 74 °F 71 °F 64 °F (2004)
Cooling Degree Days 23    
Growing Degree Days 38 (Base 50)    
Moisture  
Dew Point 66 °F    
Average Humidity 49    
Maximum Humidity 78    
Minimum Humidity 24    
Precipitation  
Precipitation 0.00 in - - ()
Sea Level Pressure  
Sea Level Pressure 30.04 in    
Wind  
Wind Speed 4 mph (ESE)    
Max Wind Speed 12 mph    
Max Gust Speed -    
Visibility 10 miles    
Events Thunderstorm    
Averages and records for this station are not official NWS values.
T = Trace of Precipitation, MM = Missing Value Source: NWS Daily Summary

Daily Weather History Graph

Daily Weather History Graph

Search for Another Location

Airport or City:

Trip Planner

Search our weather history database for the weather conditions in past years. The results will help you decide how hot, cold, wet, or windy it might be!

Date:

Astronomy

Aug. 11, 2013 Rise Set
Actual Time 6:52 AM CDT 8:19 PM CDT
Civil Twilight 6:26 AM CDT 8:45 PM CDT
Nautical Twilight 5:55 AM CDT 9:16 PM CDT
Astronomical Twilight 5:22 AM CDT 9:49 PM CDT
Moon 11:21 AM CDT (8/11) 10:57 PM CDT (8/11)
Length of Visible Light 14h 19m
Length of Day
13h 26m
Waxing Crescent, 22% of the Moon is Illuminated
Aug 11
Waxing Crescent
Aug 14
First Quarter
Aug 20
Full
Aug 28
Last Quarter
Sep 5
New

Hourly Weather History & Observations

Time (CDT) Temp. Heat Index Dew Point Humidity Pressure Visibility Wind Dir Wind Speed Gust Speed Precip Events Conditions
12:15 AM 86.0 °F 88.8 °F 67.1 °F 53% 30.05 in 10.0 mi East 5.8 mph - N/A   Clear
12:35 AM 85.6 °F 88.5 °F 67.5 °F 54% 30.05 in 10.0 mi ESE 4.6 mph - N/A   Clear
12:55 AM 85.5 °F 88.2 °F 67.3 °F 54% 30.05 in 10.0 mi Calm Calm - N/A   Clear
1:15 AM 82.2 °F 84.7 °F 67.1 °F 60% 30.05 in 10.0 mi Calm Calm - N/A   Clear
1:35 AM 81.3 °F 83.8 °F 67.3 °F 62% 30.05 in 10.0 mi Calm Calm - N/A   Clear
1:55 AM 83.3 °F 86.4 °F 68.2 °F 60% 30.05 in 10.0 mi ESE 4.6 mph - N/A   Clear
2:15 AM 81.9 °F 84.8 °F 68.0 °F 63% 30.05 in 10.0 mi Calm Calm - N/A   Clear
2:35 AM 80.2 °F 82.8 °F 68.0 °F 66% 30.05 in 10.0 mi Calm Calm - N/A   Clear
2:55 AM 80.8 °F 83.5 °F 68.0 °F 65% 30.05 in 10.0 mi Calm Calm - N/A   Clear
3:15 AM 78.4 °F - 68.0 °F 70% 30.05 in 10.0 mi Calm Calm - N/A   Clear
3:35 AM 80.1 °F 82.7 °F 68.0 °F 67% 30.05 in 10.0 mi Calm Calm - N/A   Clear
3:55 AM 78.4 °F - 67.3 °F 68% 30.05 in 10.0 mi Calm Calm - N/A   Clear
4:15 AM 78.6 °F - 67.8 °F 69% 30.05 in 10.0 mi Calm Calm - N/A   Clear
4:35 AM 78.6 °F - 67.6 °F 69% 30.05 in 10.0 mi Calm Calm - N/A   Clear
4:55 AM 78.3 °F - 67.3 °F 69% 30.05 in 10.0 mi Calm Calm - N/A   Clear
5:15 AM 78.1 °F - 67.1 °F 69% 30.05 in 10.0 mi Calm Calm - N/A   Clear
5:35 AM 76.8 °F - 67.3 °F 72% 30.05 in 10.0 mi Calm Calm - N/A   Clear
5:55 AM 76.6 °F - 67.5 °F 73% 30.05 in 10.0 mi Calm Calm - N/A   Clear
6:15 AM 75.4 °F - 67.3 °F 76% 30.05 in 10.0 mi Calm Calm - N/A   Clear
6:35 AM 74.5 °F - 66.9 °F 77% 30.06 in 10.0 mi Calm Calm - N/A   Clear
6:55 AM 74.1 °F - 66.9 °F 78% 30.07 in 10.0 mi Calm Calm - N/A   Clear
7:15 AM 75.4 °F - 67.1 °F 75% 30.07 in 10.0 mi Calm Calm - N/A   Clear
7:35 AM 77.0 °F - 68.0 °F 74% 30.08 in 10.0 mi Calm Calm - N/A   Clear
7:55 AM 78.3 °F - 68.4 °F 71% 30.08 in 10.0 mi Calm Calm - N/A   Clear
8:15 AM 80.4 °F 83.4 °F 68.9 °F 68% 30.08 in 10.0 mi East 4.6 mph - N/A   Clear
8:35 AM 81.1 °F 84.2 °F 68.7 °F 66% 30.09 in 10.0 mi ESE 5.8 mph - N/A   Clear
8:55 AM 82.8 °F 85.8 °F 68.2 °F 61% 30.10 in 10.0 mi ESE 4.6 mph - N/A   Clear
9:15 AM 83.5 °F 86.7 °F 68.4 °F 60% 30.10 in 10.0 mi Calm Calm - N/A   Clear
9:35 AM 86.2 °F 89.7 °F 68.4 °F 55% 30.10 in 10.0 mi SE 5.8 mph - N/A   Clear
9:55 AM 86.5 °F 90.3 °F 68.7 °F 55% 30.10 in 10.0 mi Calm Calm - N/A   Clear
10:15 AM 88.3 °F 92.4 °F 68.7 °F 52% 30.10 in 10.0 mi Calm Calm - N/A   Clear
10:35 AM 90.1 °F 94.4 °F 68.9 °F 49% 30.09 in 10.0 mi ESE 4.6 mph - N/A   Clear
10:55 AM 90.5 °F 95.1 °F 68.7 °F 49% 30.10 in 10.0 mi East 3.5 mph - N/A   Clear
11:15 AM 92.1 °F 96.7 °F 68.5 °F 46% 30.09 in 10.0 mi ESE 5.8 mph - N/A   Clear
11:35 AM 93.6 °F 98.4 °F 68.5 °F 44% 30.09 in 10.0 mi East 6.9 mph - N/A   Clear
11:55 AM 93.9 °F 98.6 °F 68.0 °F 43% 30.08 in 10.0 mi ENE 8.1 mph - N/A   Clear
12:15 PM 95.7 °F 100.9 °F 68.4 °F 41% 30.08 in 10.0 mi East 5.8 mph - N/A   Clear
12:35 PM 95.2 °F 99.3 °F 67.1 °F 40% 30.07 in 10.0 mi SE 4.6 mph - N/A   Clear
12:55 PM 96.1 °F 100.5 °F 67.3 °F 39% 30.06 in 10.0 mi SSW 6.9 mph - N/A   Clear
1:15 PM 97.2 °F 100.7 °F 66.4 °F 36% 30.06 in 10.0 mi ESE 4.6 mph - N/A   Clear
1:35 PM 97.2 °F 100.7 °F 66.4 °F 36% 30.05 in 10.0 mi ENE 5.8 mph - N/A   Clear
1:55 PM 98.1 °F 101.2 °F 65.1 °F 34% 30.05 in 10.0 mi East 8.1 mph - N/A   Scattered Clouds
2:15 PM 99.0 °F 101.7 °F 64.6 °F 32% 30.04 in 10.0 mi East 8.1 mph - N/A   Scattered Clouds
2:35 PM 98.8 °F 101.4 °F 64.2 °F 32% 30.03 in 10.0 mi ENE 5.8 mph - N/A   Clear
2:55 PM 99.9 °F 102.1 °F 63.3 °F 30% 30.02 in 10.0 mi ESE 5.8 mph - N/A   Clear
3:15 PM 100.6 °F 102.1 °F 61.7 °F 28% 30.01 in 10.0 mi NE 4.6 mph - N/A   Clear
3:35 PM 100.6 °F 101.6 °F 61.0 °F 27% 30.00 in 10.0 mi NE 5.8 mph - N/A   Clear
3:55 PM 101.3 °F 101.6 °F 59.5 °F 25% 29.99 in 10.0 mi East 9.2 mph - N/A   Clear
4:15 PM 101.5 °F 101.3 °F 58.8 °F 24% 29.99 in 10.0 mi Calm Calm - N/A   Clear
4:35 PM 101.7 °F 101.6 °F 58.1 °F 24% 29.98 in 10.0 mi East 3.5 mph - N/A   Clear
4:55 PM 102.2 °F 102.4 °F 59.5 °F 24% 29.98 in 10.0 mi East 8.1 mph - N/A   Clear
5:15 PM 102.2 °F 104.2 °F 62.6 °F 27% 29.97 in 10.0 mi ESE 11.5 mph - N/A   Clear
5:35 PM 101.1 °F 103.0 °F 62.6 °F 28% 29.97 in 10.0 mi East 8.1 mph - N/A   Clear
5:55 PM 100.4 °F 102.4 °F 62.4 °F 29% 29.97 in 10.0 mi East 9.2 mph - N/A   Clear
6:15 PM 99.5 °F 100.9 °F 61.9 °F 29% 29.97 in 10.0 mi East 6.9 mph - N/A   Clear
6:35 PM 98.6 °F 100.5 °F 63.3 °F 31% 29.97 in 10.0 mi SE 11.5 mph - N/A   Clear
6:55 PM 98.6 °F 100.5 °F 62.8 °F 31% 29.97 in 10.0 mi SSE 8.1 mph - N/A   Clear
7:15 PM 98.1 °F 99.6 °F 62.6 °F 31% 29.97 in 10.0 mi SSE 8.1 mph - N/A   Clear
7:35 PM 98.1 °F 100.1 °F 63.5 °F 32% 29.97 in 10.0 mi SE 8.1 mph - N/A   Clear
7:55 PM 97.3 °F 99.4 °F 63.7 °F 33% 29.97 in 10.0 mi SE 9.2 mph - N/A   Clear
8:15 PM 96.3 °F 98.1 °F 63.5 °F 34% 29.98 in 10.0 mi SE 8.1 mph - N/A   Clear
8:35 PM 95.2 °F 96.8 °F 63.9 °F 35% 29.98 in 10.0 mi SSE 8.1 mph - N/A   Clear
8:55 PM 94.5 °F 96.5 °F 64.4 °F 37% 29.99 in 10.0 mi SE 9.2 mph - N/A Thunderstorm Clear
9:15 PM 93.9 °F 96.1 °F 64.6 °F 38% 29.99 in 10.0 mi SE 6.9 mph - N/A Thunderstorm Clear
9:35 PM 93.2 °F 95.8 °F 65.3 °F 40% 29.99 in 10.0 mi SE 6.9 mph - N/A Thunderstorm Thunderstorm
9:55 PM 92.8 °F 95.2 °F 64.9 °F 40% 30.01 in 10.0 mi SE 3.5 mph - N/A Thunderstorm Scattered Clouds
10:15 PM 86.5 °F 89.6 °F 67.6 °F 53% 30.02 in 10.0 mi NNW 4.6 mph - N/A   Scattered Clouds
10:35 PM 85.1 °F 87.9 °F 67.1 °F 55% 30.04 in 10.0 mi North 10.4 mph - N/A Thunderstorm Mostly Cloudy
10:55 PM 82.9 °F 86.5 °F 69.1 °F 63% 30.07 in 10.0 mi NNE 10.4 mph - N/A Thunderstorm Mostly Cloudy
11:35 PM 82.0 °F 85.3 °F 68.9 °F 64% 30.07 in 10.0 mi NW 6.9 mph - N/A Thunderstorm Scattered Clouds